This demonstration page uses our WeatherBlox Daily Observations layout. Learn more.

Left ArrowRight Arrow

44.8408, -93.29828

Hourly Observations for November 17, 2020

Temp ( °F °C ) Dew Point ( °F °C ) Humidity (%) Winds ( mph kmh ) Pressure ( in mb ) Visibility ( mi km ) Precip ( " mm )
12:53 am 00:53 Mostly Clear 24 -4.4 15 -9.4 68 68 NNW 8 13 30.43 1030 10 16 0.00 0.00
1:53 am 01:53 Mostly Clear 22 -5.6 14 -10 71 71 NW 6 9 30.45 1031 10 16 0.00 0.00
2:53 am 02:53 Mostly Clear 22 -5.6 14 -10 71 71 NW 8 13 30.48 1032 10 16 0.00 0.00
3:53 am 03:53 Mostly Clear 20 -6.7 13 -10.6 74 74 WNW 5 7 30.48 1032 10 16 0.00 0.00
4:53 am 04:53 Mostly Clear 21 -6.1 13 -10.6 71 71 WSW 3 6 30.49 1033 10 16 0.00 0.00
5:53 am 05:53 Mostly Clear 20 -6.7 14 -10 78 78 WNW 5 7 30.50 1033 10 16 0.00 0.00
6:53 am 06:53 Mostly Clear 20 -6.7 13 -10.6 74 74 W 3 6 30.52 1034 10 16 0.00 0.00
7:53 am 07:53 Mostly Sunny 22 -5.6 15 -9.4 75 75 Calm 30.53 1034 10 16 0.00 0.00
8:53 am 08:53 Mostly Sunny 24 -4.4 15 -9.4 68 68 WSW 6 9 30.54 1034 10 16 0.00 0.00
9:53 am 09:53 Mostly Sunny 26 -3.3 17 -8.3 69 69 Calm 30.55 1035 10 16 0.00 0.00
10:53 am 10:53 Mostly Sunny 28 -2.2 16 -8.9 60 60 Calm 30.55 1034 10 16 0.00 0.00
11:53 am 11:53 Mostly Sunny 31 -0.6 16 -8.9 54 54 SW 6 9 30.53 1034 10 16 0.00 0.00
12:53 pm 12:53 Mostly Cloudy 32 0 16 -8.9 52 52 S 3 6 30.51 1033 10 16 0.00 0.00
1:53 pm 13:53 Mostly Cloudy 33 0.6 18 -7.8 54 54 S 6 9 30.49 1033 10 16 0.00 0.00
2:53 pm 14:53 Mostly Cloudy 34 1.1 19 -7.2 54 54 Calm 30.49 1032 10 16 0.00 0.00
3:53 pm 15:53 Cloudy 33 0.6 21 -6.1 61 61 SE 8 13 30.47 1032 10 16 0.00 0.00
4:53 pm 16:53 Cloudy 33 0.6 22 -5.6 64 64 ESE 7 11 30.46 1032 10 16 0.00 0.00
5:53 pm 17:53 Cloudy 33 0.6 23 -5 66 66 SE 6 9 30.43 1031 10 16 0.00 0.00
6:53 pm 18:53 Cloudy 33 0.6 23 -5 66 66 SE 7 11 30.42 1030 10 16 0.00 0.00
7:53 pm 19:53 Cloudy 34 1.1 23 -5 64 64 SE 7 11 30.41 1030 10 16 0.00 0.00
8:53 pm 20:53 Partly Cloudy 32 0 23 -5 69 69 SE 7 11 30.39 1029 10 16 0.00 0.00
9:53 pm 21:53 Mostly Clear 32 0 23 -5 69 69 SE 7 11 30.37 1029 10 16 0.00 0.00
10:53 pm 22:53 Mostly Clear 31 -0.6 22 -5.6 69 69 SSE 8 13 30.35 1028 10 16 0.00 0.00
11:53 pm 23:53 Clear 31 -0.6 22 -5.6 69 69 SSE 6 9 30.34 1028 10 16 0.00 0.00

Powered by AerisWeather